Find Starlink 37811

NORAD ID: 100296 Int'l Des: 2026-183 Owner: SPXS Country: US Constellation: starlink operational

Current View

Loading 3D Globe...

About Starlink 37811

Starlink 37811 (NORAD 100296) is a starlink constellation satellite launched Aug 11, 2026 by SPXS of US. with a mass of 575.00 kg.

Upcoming Passes

Passes for default location (London). Set your location on the main map for personalized predictions.

Altitude History

Loading altitude history...

Two-Line Element Set

1 A0296U 26183AA 26263.48044336 .00029291 00000-0 53213-3 0 9998
2 A0296 53.1587 258.7000 0001467 84.7685 275.3491 15.49341523 6280
Epoch: Sep 20, 2026 • Age: 8 hours

Current Status

Altitude 423.2 km
Apogee / Perigee N/A
Velocity 7.66 km/s
Sub-Earth Point 48.48°N, 83.83°E
Launch Date Aug 11, 2026
Age 0.1 years
Type internet

Technical Details

Classification Payload
Mass 575.00 kg
Dry Mass 530.00 kg
Length 0.30 m
Span 29.00 m
Shape ? Box + pan
Manufacturer SPXS
Bus Type Starlink V2MO
Phase Status In Orbit
Owner/State SPXS/US

Most Searched